#timestamp,LO_Frequency,Hit,StdDev 
1570028415.8,286046996.0,N
1570028435.6,286046996.0,N
1570028455.5,286046995.8,N
1570028475.3,286046993.4,N
1570028495.1,286046992.1,Y
1570028515.9,286046995.0,P
1570028535.7,286046994.9,P
1570028555.5,286046995.8,P
1570028575.4,286046995.6,Y
1570028595.2,286047001.0,P
1570028615.1,286047000.2,N
1570028616.0,286047000.2,N
1570028635.8,286047000.8,N
1570028655.6,286046998.7,N
1570028675.5,286047001.1,N
1570028695.3,286047001.1,N
1570028715.2,286047001.2,N
1570028735.9,286047001.0,N
1570028755.7,286047000.6,N
1570028775.6,286046998.1,N
1570028795.4,286046999.4,N
1570028815.3,286046997.2,N
1570028835.1,286046997.4,N
1570028836.0,286046997.4,N
1570028855.8,286046996.7,N
1570028875.7,286046999.3,N
1570028895.5,286046999.0,N
1570028915.3,286046997.3,N
1570028935.2,286046996.5,N
1570028955.0,286046999.4,N
1570028955.9,286046999.4,N
1570028975.8,286047000.7,N
1570028995.6,286047000.1,N
1570029015.4,286047000.2,N
1570029035.3,286047000.9,N
1570029055.3,286046998.1,N
1570029075.2,286046998.3,N
1570029095.0,286046999.3,N
1570029095.9,286046999.3,N
1570029115.8,286046998.7,N
1570029135.6,286046999.0,N
1570029155.4,286047011.9,Y
1570029175.3,286046998.5,P
1570029195.1,286046998.8,P
1570029215.9,286046999.6,N
1570029235.7,286046999.5,N
1570029255.5,286046998.9,N
1570029275.4,286046997.6,Y
1570029295.2,286046999.5,P
1570029315.0,286046997.0,P
1570029315.9,286046997.0,N
1570029335.8,286046998.3,N
1570029355.6,286047000.0,N
1570029375.5,286047001.5,N
1570029395.3,286047001.4,N
1570029415.1,286047001.4,N
1570029435.9,286047004.0,N
1570029455.7,286047001.8,N
1570029475.5,286047003.9,N
1570029495.4,286047001.5,N
1570029515.2,286047002.6,N
1570029535.1,286047001.3,N
1570029536.0,286047001.3,N
1570029555.8,286047001.8,N
1570029575.6,286047003.9,N
1570029595.5,286047003.1,N
1570029615.3,286047003.8,N
1570029635.1,286047003.3,N
1570029655.9,286047001.8,N
1570029675.7,286047002.1,N
1570029695.6,286047002.4,N
1570029715.4,286047001.0,N
1570029735.2,286046999.3,N
1570029755.1,286046997.2,N
1570029756.0,286046997.2,N
1570029775.8,286046997.5,N
1570029795.7,286046995.2,N
1570029815.5,286046997.3,N
1570029835.3,286046995.0,N
1570029855.2,286046997.0,N
1570029875.9,286046997.2,N
1570029895.7,286046997.4,N
1570029915.6,286046998.0,N
1570029935.4,286046997.9,N
1570029955.3,286046997.3,N
1570029975.1,286046996.8,N
1570029976.0,286046996.8,N
1570029995.8,286046997.1,N
1570030015.7,286046997.1,N
1570030035.5,286046997.5,N
1570030055.3,286046997.1,N
1570030075.2,286046997.6,N
1570030095.0,286046997.7,N
1570030095.9,286046997.7,N
1570030115.8,286046994.9,N
1570030135.6,286046998.0,N
1570030155.4,286046996.7,N
1570030175.3,286046997.0,N
1570030195.1,286046997.1,N
1570030215.8,286046997.3,N
1570030235.7,286046997.6,N
1570030255.5,286046994.9,Y
1570030275.4,286046998.1,P
1570030295.2,286047001.2,N
1570030315.0,286046998.7,N
1570030315.9,286046998.7,N
1570030335.8,286047000.3,N
1570030355.6,286046999.8,N
1570030375.4,286047001.5,N
1570030395.3,286047002.3,N
1570030415.1,286047002.6,N
1570030435.9,286046999.7,N
1570030455.7,286047001.9,N
1570030475.5,286047001.7,N
1570030495.4,286047001.3,N
1570030515.2,286047001.8,N
1570030535.0,286047001.6,N
1570030536.0,286047001.6,N
1570030555.8,286047004.2,N
1570030575.6,286047003.2,N
1570030595.5,286047002.9,N
1570030615.3,286047003.8,N
1570030635.1,286047003.4,N
1570030655.9,286047001.4,N
1570030675.7,286047004.1,N
1570030695.5,286047004.3,N
1570030715.4,286047003.8,N
1570030735.2,286047003.9,N
1570030755.1,286047005.8,N
1570030756.0,286047005.8,N
1570030775.8,286047003.4,N
1570030795.6,286047003.1,N
1570030815.5,286047003.4,N
1570030835.3,286047003.1,N
1570030855.2,286047003.5,N
1570030875.9,286047003.5,N
1570030895.7,286047004.1,N
1570030915.6,286047003.5,N
1570030935.4,286047003.1,N
1570030955.2,286047006.0,Y
1570030975.1,286046999.8,P
1570030976.0,286046999.8,N
1570030995.8,286047001.2,N
1570031015.7,286047000.2,N
1570031035.5,286047002.5,N
1570031055.3,286047002.8,N
1570031075.2,286047000.2,N
1570031095.0,286047002.4,N
1570031095.9,286047002.4,N
1570031115.7,286047001.8,N
1570031135.6,286047002.5,N
1570031155.4,286047002.5,N
1570031175.3,286047002.1,N
1570031195.1,286047004.0,Y
1570031215.8,286047002.4,P
1570031235.7,286047002.8,P
1570031255.5,286047002.1,P
1570031275.4,286047002.1,Y
1570031295.2,286047002.4,P
1570031315.0,286047002.7,P
1570031315.9,286047002.7,P
1570031335.8,286047000.4,N
1570031355.6,286047000.1,N
1570031375.4,286047000.2,N
1570031395.3,286046998.1,N
1570031415.1,286047000.4,N
1570031435.9,286046999.9,N
1570031455.7,286046999.8,N
1570031475.5,286047002.0,N
1570031495.4,286047004.1,N
1570031515.2,286047003.7,N
1570031535.0,286047003.8,N
1570031535.9,286047003.8,N
1570031555.8,286047003.8,N
1570031575.6,286047003.5,N
1570031595.5,286047005.8,Y
1570031615.3,286047003.8,P
1570031635.1,286047002.9,N
1570031655.9,286047005.9,P
1570031675.7,286047003.1,N
1570031695.6,286047005.5,Y
1570031715.4,286046999.9,P
1570031735.2,286047002.3,N
1570031755.1,286046999.9,N
1570031756.0,286046999.9,N
1570031775.8,286047000.0,N
1570031795.7,286047000.7,N
1570031815.5,286047001.0,N
1570031835.3,286047001.1,N
1570031855.2,286046998.6,N
1570031875.9,286046998.4,N
1570031895.7,286047000.7,N
1570031915.6,286046998.8,N
1570031935.4,286047001.2,N
1570031955.3,286047000.0,N
1570031975.1,286047000.5,N
1570031976.0,286047000.5,N
1570031995.8,286047000.3,N
